Muskegon, MI

4:54 AM EST on November 18, 2019 (GMT -0500)
Muskegon County

Weather History for KMKG - September, 2019

Change the Weather History Date:

Saturday, September 28, 2019

  Actual Average Record
Temperature  
Mean Temperature 62 °F 57 °F  
Max Temperature 69 °F 66 °F 90 °F (1905)
Min Temperature 54 °F 48 °F 27 °F (1991)
Degree Days  
Heating Degree Days 3 9  
Month to date heating degree days 29 125  
Since 1 July heating degree days 33 155  
Cooling Degree Days 0 1  
Month to date cooling degree days 82 55  
Year to date cooling degree days 627 562  
Growing Degree Days 13 (Base 50)    
Moisture  
Dew Point 57 °F    
Average Humidity 74    
Maximum Humidity 93    
Minimum Humidity 55    
Precipitation  
Precipitation 0.00 in 0.13 in 1.57 in (1904)
Month to date precipitation 5.44 3.64  
Year to date precipitation 32.57 24.22  
Snow  
Snow 0.00 in 0.00 in T in (1949)
Month to date snowfall 0.0 0.0  
Since 1 July snowfall 0.0 0.0  
Since 1 September snowfall 0.0 0.0  
Snow Depth 0.00 in    
Sea Level Pressure  
Sea Level Pressure 30.00 in    
Wind  
Wind Speed 7 mph (NNE)    
Max Wind Speed 15 mph    
Max Gust Speed 26 mph    
Visibility 10 miles    
Events Rain    
T = Trace of Precipitation, MM = Missing Value Source: NWS Daily Summary

Daily Weather History Graph

Daily Weather History Graph

Search for Another Location

Airport or City:

Astronomy

Sep. 28, 2019 Rise Set
Actual Time 7:38 AM EDT 7:31 PM EDT
Civil Twilight 7:10 AM EDT 8:00 PM EDT
Nautical Twilight 6:37 AM EDT 8:33 PM EDT
Astronomical Twilight 6:03 AM EDT 9:06 PM EDT
Moon 7:11 AM EDT (9/28) 7:58 PM EDT (9/28)
Length of Visible Light 12h 49m
Length of Day
11h 53m
Waning Crescent, 0% of the Moon is Illuminated
Sep 28
Waning Crescent
Sep 28
New
Oct 5
First Quarter
Oct 13
Full
Oct 21
Last Quarter

Hourly Weather History & Observations

Time (EDT) Temp. Dew Point Humidity Pressure Visibility Wind Dir Wind Speed Gust Speed Precip Events Conditions
12:17 AM 64.9 °F 62.1 °F 90% 29.80 in 10.0 mi WNW 4.6 mph - 0.01 in Rain Light Rain
12:31 AM 64.9 °F 62.1 °F 90% 29.79 in 10.0 mi Calm Calm - 0.01 in   Overcast
12:45 AM 64.9 °F 62.1 °F 90% 29.80 in 10.0 mi Calm Calm - 0.01 in   Mostly Cloudy
12:55 AM 64.9 °F 62.1 °F 90% 29.80 in 10.0 mi Calm Calm - 0.01 in   Overcast
1:28 AM 64.9 °F 62.1 °F 90% 29.80 in 10.0 mi NNW 3.5 mph - N/A   Overcast
1:42 AM 64.9 °F 61.0 °F 87% 29.82 in 10.0 mi NNW 5.8 mph - N/A   Overcast
1:55 AM 64.0 °F 61.0 °F 90% 29.82 in 10.0 mi North 6.9 mph - N/A   Overcast
2:55 AM 64.0 °F 61.0 °F 90% 29.84 in 10.0 mi NNE 5.8 mph - N/A   Overcast
3:19 AM 64.0 °F 61.0 °F 90% 29.85 in 10.0 mi North 5.8 mph - N/A   Overcast
3:26 AM 64.0 °F 60.1 °F 87% 29.85 in 10.0 mi North 5.8 mph - N/A   Overcast
3:34 AM 63.0 °F 60.1 °F 90% 29.85 in 10.0 mi North 6.9 mph - N/A   Overcast
3:55 AM 63.0 °F 60.1 °F 90% 29.85 in 10.0 mi NNE 9.2 mph - N/A   Overcast
4:03 AM 63.0 °F 60.1 °F 90% 29.86 in 10.0 mi NNE 8.1 mph - N/A   Overcast
4:55 AM 63.0 °F 59.0 °F 87% 29.89 in 10.0 mi North 3.5 mph - N/A   Overcast
5:09 AM 62.1 °F 59.0 °F 90% 29.89 in 10.0 mi North 6.9 mph - N/A   Overcast
5:55 AM 62.1 °F 57.9 °F 86% 29.91 in 10.0 mi North 8.1 mph - N/A   Overcast
6:05 AM 62.1 °F 59.0 °F 90% 29.92 in 10.0 mi NNE 8.1 mph - N/A   Overcast
6:44 AM 62.1 °F 57.9 °F 86% 29.94 in 10.0 mi North 5.8 mph - N/A   Overcast
6:55 AM 62.1 °F 57.9 °F 86% 29.94 in 10.0 mi North 6.9 mph - N/A   Overcast
7:39 AM 61.0 °F 57.0 °F 87% 29.96 in 10.0 mi North 8.1 mph - N/A   Overcast
7:55 AM 61.0 °F 57.0 °F 87% 29.98 in 10.0 mi North 6.9 mph - N/A   Mostly Cloudy
8:30 AM 61.0 °F 57.0 °F 87% 30.02 in 10.0 mi NNE 6.9 mph - N/A   Overcast
8:37 AM 61.0 °F 57.0 °F 87% 30.02 in 10.0 mi North 5.8 mph - N/A   Overcast
8:55 AM 61.0 °F 55.9 °F 83% 30.03 in 10.0 mi NNE 6.9 mph - N/A   Overcast
9:24 AM 61.0 °F 55.0 °F 81% 30.05 in 10.0 mi NNE 10.4 mph - N/A   Overcast
9:55 AM 61.0 °F 55.0 °F 81% 30.07 in 10.0 mi North 10.4 mph - N/A   Overcast
10:30 AM 63.0 °F 55.9 °F 78% 30.07 in 10.0 mi NNE 9.2 mph - N/A   Overcast
10:55 AM 63.0 °F 55.0 °F 75% 30.07 in 10.0 mi North 10.4 mph - N/A   Overcast
11:55 AM 64.0 °F 54.0 °F 70% 30.10 in 10.0 mi North 12.7 mph - N/A   Overcast
1:55 PM 66.0 °F 53.1 °F 63% 30.13 in 10.0 mi NNE 11.5 mph - N/A   Mostly Cloudy
2:55 PM 66.0 °F 53.1 °F 63% 30.15 in 10.0 mi North 9.2 mph - N/A   Mostly Cloudy
3:20 PM 69.1 °F 53.1 °F 57% 30.15 in 10.0 mi North 6.9 mph - N/A   Mostly Cloudy
3:55 PM 66.0 °F 52.0 °F 60% 30.17 in 10.0 mi NNW 5.8 mph - N/A   Mostly Cloudy
4:55 PM 68.0 °F 53.1 °F 59% 30.17 in 10.0 mi Calm Calm - N/A   Mostly Cloudy
5:55 PM 68.0 °F 52.0 °F 56% 30.19 in 10.0 mi Calm Calm - N/A   Scattered Clouds
6:55 PM 64.9 °F 52.0 °F 63% 30.20 in 10.0 mi NE 5.8 mph - N/A   Partly Cloudy
7:55 PM 62.1 °F 52.0 °F 70% 30.21 in 10.0 mi NE 4.6 mph - N/A   Partly Cloudy
8:55 PM 60.1 °F 52.0 °F 75% 30.22 in 10.0 mi NNE 6.9 mph - N/A   Partly Cloudy
9:55 PM 57.9 °F 51.1 °F 78% 30.24 in 10.0 mi NE 8.1 mph - N/A   Partly Cloudy
10:55 PM 57.0 °F 51.1 °F 81% 30.27 in 10.0 mi NE 8.1 mph - N/A   Clear
11:55 PM 55.0 °F 48.9 °F 80% 30.29 in 10.0 mi NE 6.9 mph - N/A   Clear